GLO8001 SBBR-SBSP

Flight info

Callsign GLO8001
Flight time N/A
Altitude 35000
Route NELEG UZ2 ENTIT
Aircraft B737/M-V/N

Departure

Time 2026-04-30 22:36
Airport Presidente Juscelino Kubitschek International Airport (SBBR)

Arrival

Time N/A
Airport Congonhas–Deputado Freitas Nobre Airport (SBSP)
Time Latitude Longitude Altitude Speed Heading
2026-04-30 22:30 -15.87811 -47.92805 3471 ft 8 kts 265°
2026-04-30 22:31 -15.87828 -47.93033 3470 ft 13 kts 268°
2026-04-30 22:32 -15.87854 -47.93338 3471 ft 15 kts 262°
2026-04-30 22:32 -15.87866 -47.93562 3471 ft 16 kts 271°
2026-04-30 22:33 -15.87879 -47.93912 3472 ft 17 kts 264°
2026-04-30 22:33 -15.87997 -47.93995 3481 ft 7 kts 176°
2026-04-30 22:34 -15.88036 -47.93547 3480 ft 87 kts 86°
2026-04-30 22:35 -15.87921 -47.91430 3845 ft 185 kts 89°
2026-04-30 22:36 -15.90813 -47.86194 5189 ft 270 kts 157°
2026-04-30 22:36 -15.92654 -47.85803 5831 ft 275 kts 169°
2026-04-30 22:37 -15.98449 -47.85071 8270 ft 286 kts 175°
2026-04-30 22:37 -16.00426 -47.85464 8817 ft 296 kts 199°
2026-04-30 22:37 -16.03624 -47.86913 9066 ft 300 kts 200°
2026-04-30 22:38 -16.07464 -47.88629 9086 ft 301 kts 200°
2026-04-30 22:38 -16.11352 -47.90383 9847 ft 307 kts 200°
2026-04-30 22:39 -16.13307 -47.91276 10556 ft 311 kts 200°
2026-04-30 22:39 -16.19824 -47.94243 11332 ft 363 kts 201°
2026-04-30 22:40 -16.27040 -47.95193 13204 ft 357 kts 155°
2026-04-30 22:41 -16.32693 -47.90169 14800 ft 364 kts 132°
2026-04-30 22:41 -16.36189 -47.86323 15796 ft 372 kts 132°
2026-04-30 22:42 -16.43504 -47.78399 17803 ft 386 kts 132°
2026-04-30 22:43 -16.47281 -47.74335 18697 ft 393 kts 132°
2026-04-30 22:43 -16.51113 -47.70212 19531 ft 400 kts 132°
2026-04-30 22:44 -16.55012 -47.66013 20388 ft 405 kts 132°
2026-04-30 22:45 -16.62958 -47.57447 22057 ft 415 kts 132°
2026-04-30 22:45 -16.67625 -47.53972 22814 ft 427 kts 161°
2026-04-30 22:46 -16.73514 -47.52895 23607 ft 433 kts 171°
2026-04-30 22:47 -16.85570 -47.51155 24932 ft 440 kts 170°
2026-04-30 22:47 -16.91667 -47.50217 25573 ft 444 kts 170°
2026-04-30 22:48 -16.97801 -47.49260 26191 ft 447 kts 171°
2026-04-30 22:49 -17.07060 -47.47812 27100 ft 452 kts 171°
2026-04-30 22:49 -17.16451 -47.46345 27974 ft 457 kts 171°
2026-04-30 22:50 -17.29141 -47.44360 29076 ft 464 kts 171°
2026-04-30 22:51 -17.35546 -47.43357 29592 ft 467 kts 171°
2026-04-30 22:51 -17.41989 -47.42347 30179 ft 468 kts 171°
2026-04-30 22:52 -17.45195 -47.41844 30541 ft 465 kts 171°
2026-04-30 22:52 -17.51557 -47.40847 31271 ft 461 kts 171°
2026-04-30 22:53 -17.57908 -47.39851 31806 ft 461 kts 171°
2026-04-30 22:53 -17.64182 -47.38865 32557 ft 457 kts 172°
2026-04-30 22:53 -17.67331 -47.38370 32826 ft 457 kts 171°
2026-04-30 22:54 -17.73612 -47.37383 33513 ft 455 kts 172°
2026-04-30 22:55 -17.82984 -47.35908 34406 ft 452 kts 172°
2026-04-30 22:55 -17.89177 -47.34932 34908 ft 451 kts 172°
2026-04-30 22:56 -17.95417 -47.33949 35045 ft 456 kts 172°
2026-04-30 22:57 -18.10942 -47.31498 35062 ft 448 kts 172°
2026-04-30 22:58 -18.23239 -47.29554 35058 ft 449 kts 172°
2026-04-30 22:59 -18.41809 -47.26614 35071 ft 450 kts 172°